Miscellaneous Local Product
Issued by NWS Hastings, NE

Home | Current Version | Previous Version | Graphics & Text | Print | Product List | Glossary On
Versions: 1 2 3 4 5 6 7 8 9 10 11 12 13 14 15 16 17 18 19 20 21 22 23 24 25 26 27 28 29 30 31 32 33 34 35 36 37 38 39 40 41 42 43 44 45 46 47 48 49 50
000
AXUS43 KGID 201102
MISGRI

GID CWA HOURLY WEATHER ROUNDUP
NATIONAL WEATHER SERVICE HASTINGS NE
600 AM CDT THU JUL 20 2017

NOTE: "FAIR" INDICATES FEW OR NO CLOUDS BELOW 12,000 FEET WITH NO
SIGNIFICANT WEATHER AND/OR OBSTRUCTIONS TO VISIBILITY.

...SOUTH CENTRAL NEBRASKA...

CITY           SKY/WX    TMP DP  RH WIND       PRES   REMARKS
GRAND ISLAND   CLOUDY    74  69  85 S8        30.01R
HASTINGS       CLOUDY    72  65  78 S5        30.03R
KEARNEY        PTCLDY    72  66  81 SE3       30.02S
ORD            CLOUDY    72  65  78 SW3       29.99S
YORK           CLOUDY    73  66  78 S5        29.99F
AURORA         CLOUDY    73  67  82 SW6       30.01R
LEXINGTON      CLOUDY    73  68  82 E8        30.02R
HOLDREGE       MOCLDY    71  63  78 NE5       30.03R
HEBRON         MOCLDY    77  66  70 SW3       29.99S

...NEBRASKA PANHANDLE...

CITY           SKY/WX    TMP DP  RH WIND       PRES   REMARKS
CHADRON        CLOUDY    67  65  93 E5        30.08R
ALLIANCE       CLOUDY    66  63  90 SE8       30.10F
SCOTTSBLUFF    CLOUDY    68  64  87 CALM      30.14R
SIDNEY         PTCLDY    67  62  84 NE9       30.16R

...WESTERN AND NORTH CENTRAL NEBRASKA...

CITY           SKY/WX    TMP DP  RH WIND       PRES   REMARKS
VALENTINE      LGT RAIN  74  64  71 E8        30.06R
AINSWORTH      CLOUDY    76  65  70 NW9       30.07F
ONEILL         CLOUDY    76  65  70 NW8       30.01R
BROKEN BOW     MOCLDY    70  64  81 CALM      30.02F
IMPERIAL       PTCLDY    71  63  75 NE12      30.01S
NORTH PLATTE   PTCLDY    71  63  75 NE6       30.03R
MCCOOK         CLEAR     68  60  75 NE7       30.00R

...EASTERN NEBRASKA...

CITY           SKY/WX    TMP DP  RH WIND       PRES   REMARKS
NORFOLK        CLOUDY    74  63  68 CALM      29.98S
SO SIOUX CITY  CLOUDY    79  75  87 NW7       29.93R
TEKAMAH        CLOUDY    78  69  73 SW6       29.93R
COLUMBUS       CLOUDY    79  67  66 N10       29.98R
ALBION         CLOUDY    76  66  72 CALM      29.99R
OMAHA EPPLEY   MOCLDY    81  70  69 S12       29.94S
OFFUTT AFB     PTCLDY    74  70  86 S6        29.95S
MILLARD        PTCLDY    80  73  78 S5        29.95S
LINCOLN        PTCLDY    75  69  81 S6        29.98S
NEBRASKA CITY  PTCLDY    75  72  88 CALM      29.99R
BEATRICE       CLOUDY    76  68  75 NW7       29.99R
FALLS CITY     CLEAR     76  70  82 SW6       29.97S

...NORTHERN KANSAS...

CITY           SKY/WX    TMP DP  RH WIND       PRES   REMARKS
GOODLAND       CLEAR     64  59  83 CALM      30.04R
HILL CITY      PTCLDY    77  62  59 SW8       30.00R
NORTON         SUNNY     73  57  56 S5        29.98R
PHILLIPSBURG   CLEAR     77  61  57 SE5       29.99R
SMITH CENTER   CLEAR     70  63  78 E7        30.00R
HAYS           CLEAR     75  64  68 S6        30.02R
RUSSELL        CLEAR     77  65  66 S13       30.00R
CONCORDIA      CLEAR     78  67  68 S14       29.99R
SALINA         CLEAR     81  68  64 S13       30.00S
TOPEKA         CLEAR     78  72  81 CALM      30.01R



USA.gov is the U.S. government's official web portal to all federal, state and local government web resources and services.